Kezdőlap
METAR-TAF:

METAR-TAF

Repülőterek :

Hutchinson Municipal Airport (Butler Field)

Hutchinson, Minnesota, Amerikai Egyesült Államok

földrajzi szélesség: 44-52N, földrajzi hosszúság: 094-23W, magasság: 323 m

Jelenlegi meteorológiai megfigyelések

A jelentés 21 perccel ezelõtt készült, 05:35 UTC
Szélcsend
Hőmérséklet -2°C
Páratartalom 93%
Légköri nyomás 1015 hPa
Látótávolság: 1.6 km
Párásság

METAR: KHCD 210535Z AUTO 00000KT 1SM BR VV007 M02/M03 A2996 RMK AO2 T10211033

Idő: 23:56 (05:56 UTC)


TAF: hiányzik

Meteorológiai megfigyelések és előrejelzések több, mint 4000 repülőtéren (METAR és TAF jelentéseket).

A térképen piros és sárga pontok jelzik az elérhető meteorológiai állomásokat.

Mozgassa az egeret a pont fölött, hogy megjelenjen az állomás neve.

Azután kattintson az időjárási megfigyelések és előrejelzések megtekintéséhez.

A térkép megváltoztatása: kattintson a fekete keresztel jelölt zöld gombra ráközelítéshez, a vonallal jelölt zöld gombra távolításhoz, vagy a zöld nyilakra a szomszédos térképek eléréséhez.


METAR-TAF: